sat.trackr.live / text

‹ back to catalog

IRIDE-MS1-EAGLET 2-12

NORAD 68461 · 2026-067AX

PAYLOAD ACTIVE UNKNOWN

§ Identity

Operator
Country
IT
Launch date
2026-03-30
Launch site
AFWTR
Launch vehicle
Mass (kg)
RCS (m²)

External: N2YO · Heavens-Above · Gunter

§ Orbital elements

Epoch: 2026-09-19T07:39:36.582624Z

Period
94.79 min
Inclination
97.4648°
Eccentricity
0.0006116
Mean motion
15.19133330 rev/d
Perigee alt
504.2 km
Apogee alt
512.7 km
Semi-major
6,886.6 km
B*
2.2427e-4
RAAN
219.4956°
Arg perigee
92.9168°
Mean anomaly
267.2767°
Rev number
2,622

§ Raw data

IRIDE-MS1-EAGLET 2-121 68461U 26067AX  26262.31917341  .00004645  00000+0  22427-3 0  99912 68461  97.4648 219.4956 0006116  92.9168 267.2767 15.19133330 26228

JSON: /api/v1/satellites/68461 · /tle

For live sub-satellite position, see the globe view (requires WebGL).

§ Visibility from observer

Set your observer location to see the next 7 days of passes ≥ 10°. The values pass through the URL so the page stays shareable.

No JS? Fill the form by hand. The geolocation button needs JavaScript.